[[{"header":{"parameterUnit":"m.s-1","parameterCategory":1,"la1":30.2991,"la2":30.254,"lo1":-89.0895,"lo2":-89.0444,"dy":0.0017,"dx":0.0017,"nx":28,"ny":28,"refTime":"2024-06-10T21:00:00:Z","depth":0,"parameterNumber":2,"parameterNumberName":"U-component_of_WINDS"},"data":[0,0,0,0,0,0,0,0,0,0,0,0,0,0,0,0,0,0,0,0,0,0,0,0,0,0,0,0,0,0,0,0,0,0,0,0,0,0,0,0,0,0,0,0,0,0,0,0,0,0,0,0,0,0,0,0,0,0,2.422,2.422,0,2.4279,2.428,2.4281,2.4286,2.4285,2.4285,2.4284,2.4347,2.4349,2.4351,0,0,0,0,0,0,0,0,0,0,0,0,0,2.4113,2.4115,2.422,2.422,2.4221,2.4279,2.428,2.4281,2.4286,2.4285,2.4285,2.4284,2.4346,2.4349,2.4351,0,0,0,0,0,0,0,0,0,0,0,0,0,2.4164,2.4115,2.422,2.4231,2.4232,2.4279,2.428,2.4281,2.4286,2.4285,2.4284,2.4284,2.4345,2.4348,2.4352,2.4392,0,0,2.4362,2.4364,0,0,0,0,0,0,0,0,2.4161,2.4168,2.4228,2.423,2.4232,2.4274,2.4265,2.4318,2.4287,2.4266,2.4284,2.4283,2.4324,2.4329,2.4342,2.4395,2.4397,2.4362,2.4364,2.4366,2.4367,0,0,0,0,0,0,0,2.4158,2.4166,2.4243,2.4229,2.4231,2.4234,2.424,2.4275,2.4299,2.4268,2.4268,2.4275,2.4324,2.4339,2.4343,2.4398,2.4362,2.4365,2.4367,2.4369,2.4489,2.449,0,0,0,0,0,0,2.4152,2.4163,2.4241,2.4245,2.4194,2.4236,2.4243,2.4262,2.4299,2.4304,2.4276,2.4275,2.4333,2.4339,2.4346,2.4396,2.4366,2.4369,2.4371,2.4488,2.4489,2.4491,0,0,0,0,0,0,2.415,2.4159,2.4239,2.4204,2.4215,2.4239,2.426,2.4263,2.4278,2.4305,2.431,2.4286,2.4333,2.4341,2.4381,2.4398,2.4371,2.4374,2.4487,2.4488,2.449,2.4497,0,0,0,0,0,0,2.4146,2.4158,2.4173,2.4204,2.4216,2.4272,2.4261,2.4265,2.4283,2.4283,2.4316,2.432,2.4333,2.4376,2.4384,2.4403,2.4376,2.4485,2.4487,2.449,2.4495,2.4499,2.4502,0,0,0,0,0,2.4143,2.4172,2.4173,2.4183,2.4235,2.4273,2.428,2.4293,2.4285,2.43,2.4318,2.4319,2.4395,2.438,2.4389,2.4409,2.4484,2.4487,2.4489,2.4494,2.4498,2.4501,0,0,0,0,0,0,2.4142,2.4176,2.4178,2.4219,2.4243,2.4274,2.4294,2.4297,2.4324,2.4323,2.4339,2.4346,2.4386,2.4401,2.4383,2.4451,2.4439,2.4444,2.4439,2.4443,2.4446,2.4442,2.4379,0,0,0,0,0,2.4146,2.4174,2.4203,2.4236,2.4248,2.4269,2.4286,2.4294,2.432,2.433,2.4351,2.4377,2.4407,2.4426,2.4454,2.4498,2.4506,2.4516,2.4519,2.4522,2.4526,2.4551,2.4557,2.4499,2.4499,2.4499,0,0,2.4156,2.4178,2.4195,2.4236,2.4256,2.4285,2.4277,2.4308,2.433,2.4335,2.4374,2.439,2.442,2.4462,2.4482,2.4476,2.4544,2.4525,2.4527,2.453,2.4555,2.456,2.4565,2.4501,2.4501,2.4501,0,0,2.4189,2.4208,2.4238,2.4258,2.4288,2.4302,2.431,2.4341,2.4352,2.4391,2.4396,2.4423,2.4473,2.4495,2.4512,2.4555,2.4557,2.4564,2.4581,2.4605,2.461,2.4614,2.463,2.4636,2.4568,2.4568,2.4568,0,2.4197,2.424,2.4253,2.4284,2.4303,2.4309,2.4341,2.436,2.4398,2.4411,2.4405,2.4469,2.449,2.4538,2.4548,2.4562,2.4572,2.456,2.4608,2.4612,2.4616,2.4632,2.4638,2.4568,2.4568,2.4568,2.4568,0,2.4249,2.4279,2.43,2.4337,2.4358,2.4389,2.4408,2.4428,2.4435,2.445,2.4491,2.4516,2.4551,2.4563,2.4569,2.4612,2.4608,2.4605,2.4593,2.4622,2.4637,2.4643,2.4569,2.4569,2.4569,2.4569,0,0,2.4282,2.4327,2.4334,2.4352,2.4386,2.441,2.4442,2.4476,2.4493,2.452,2.4548,2.4591,2.4589,2.4609,2.4618,2.464,2.4673,2.4634,2.4635,2.4641,2.4723,2.4726,2.4732,2.4675,2.4677,2.4678,2.4721,0,2.4319,2.4375,2.4389,2.4438,2.4466,2.4474,2.4502,2.4527,2.4542,2.4569,2.4587,2.4617,2.4611,2.4624,2.4645,2.4665,2.469,2.4662,2.4703,2.4704,2.4695,2.474,2.4743,2.4782,2.4727,2.4728,2.4729,0,2.4369,2.4397,2.4449,2.4481,2.4493,2.4518,2.4551,2.4577,2.4606,2.4615,2.4638,2.4646,2.4681,2.4668,2.4717,2.4697,2.4715,2.4727,2.4729,2.4734,2.4718,2.4746,2.4795,2.4802,2.4738,2.4737,2.4737,0,2.4389,2.4439,2.4477,2.4492,2.453,2.4547,2.4564,2.4592,2.4612,2.4641,2.4655,2.4687,2.4705,2.4731,2.4748,2.4737,2.4796,2.4784,2.4806,2.4806,2.4818,2.4818,2.4871,2.4829,2.4829,2.4829,2.4829,0,2.4429,2.446,2.4487,2.451,2.4546,2.4562,2.4598,2.4615,2.464,2.4667,2.4676,2.4702,2.4722,2.4751,2.4765,2.4804,2.4812,2.4822,2.4825,2.4821,2.482,2.4833,2.4831,2.4831,2.483,2.483,2.483,0,2.4457,2.4476,2.4517,2.455,2.456,2.4585,2.4614,2.4637,2.4653,2.4688,2.4697,2.4723,2.4757,2.4777,2.4821,2.483,2.4874,2.4876,2.4864,2.4866,2.4887,2.4885,2.4951,2.4962,2.4912,2.4912,2.4913,0,2.4481,2.4506,2.4542,2.4561,2.4578,2.4608,2.4629,2.4646,2.4667,2.4703,2.4723,2.4758,2.4787,2.4842,2.4865,2.4899,2.4902,2.4923,2.4907,2.4903,2.4904,2.4902,2.4905,2.4926,2.4926,2.4927,2.4927,0,2.4523,2.4531,2.456,2.4593,2.4618,2.4644,2.4671,2.4686,2.4708,2.4732,2.4768,2.479,2.4835,2.4871,2.4907,2.4925,2.493,2.4932,2.4939,2.4936,2.4928,2.4933,2.4872,2.493,2.493,2.493,2.493,2.493,2.455,2.4573,2.4602,2.4635,2.4657,2.4682,2.4706,2.4725,2.4755,2.4793,2.4802,2.4839,2.4869,2.4918,2.4938,2.4968,2.4965,2.4975,2.4977,2.498,2.4981,2.4923,2.4975,2.4975,2.4975,2.4975,2.4975,0,2.4593,2.4613,2.4642,2.468,2.4706,2.4708,2.4738,2.476,2.4793,2.482,2.4849,2.4891,2.4925,2.4952,2.4987,2.5007,2.501,2.5016,2.5015,2.5019,2.4982,2.4972,2.5013,2.5013,2.5013,2.5013,2.5013,2.5013,2.4618,2.4657,2.4669,2.472,2.4739,2.4776,2.4793,2.4817,2.4839,2.4885,2.4914,2.4931,2.4958,2.4996,2.5029,2.5036,2.5049,2.5054,2.5061,2.5026,2.5022,2.5018,2.5009,2.5056,2.5057,2.5096,2.5097,2.5097]},{"header":{"parameterUnit":"m.s-1","parameterCategory":1,"la1":30.2991,"la2":30.254,"lo1":-89.0895,"lo2":-89.0444,"dy":0.0017,"dx":0.0017,"nx":28,"ny":28,"refTime":"2024-06-10T21:00:00:Z","depth":0,"parameterNumber":3,"parameterNumberName":"V-component_of_WINDS"},"data":[0,0,0,0,0,0,0,0,0,0,0,0,0,0,0,0,0,0,0,0,0,0,0,0,0,0,0,0,0,0,0,0,0,0,0,0,0,0,0,0,0,0,0,0,0,0,0,0,0,0,0,0,0,0,0,0,0,0,-0.7583,-0.7583,0,-0.76,-0.76,-0.7601,-0.7625,-0.7626,-0.7626,-0.7627,-0.7644,-0.7644,-0.7644,0,0,0,0,0,0,0,0,0,0,0,0,0,-0.7572,-0.7572,-0.7583,-0.7583,-0.7583,-0.76,-0.76,-0.7601,-0.7625,-0.7626,-0.7626,-0.7627,-0.7644,-0.7644,-0.7644,0,0,0,0,0,0,0,0,0,0,0,0,0,-0.7582,-0.7572,-0.7583,-0.7598,-0.7599,-0.76,-0.76,-0.7601,-0.7625,-0.7626,-0.7627,-0.7627,-0.7644,-0.7644,-0.7644,-0.7632,0,0,-0.7645,-0.7645,0,0,0,0,0,0,0,0,-0.7581,-0.7582,-0.7595,-0.7596,-0.7598,-0.7611,-0.7603,-0.7611,-0.7625,-0.7615,-0.7627,-0.7627,-0.7633,-0.7634,-0.7636,-0.7633,-0.7633,-0.7645,-0.7645,-0.7645,-0.7645,0,0,0,0,0,0,0,-0.758,-0.7581,-0.759,-0.7595,-0.7597,-0.7604,-0.7606,-0.7605,-0.762,-0.7616,-0.7618,-0.762,-0.7634,-0.7635,-0.7636,-0.7634,-0.7645,-0.7645,-0.7645,-0.7645,-0.7624,-0.7624,0,0,0,0,0,0,-0.7577,-0.7581,-0.7589,-0.759,-0.7591,-0.7603,-0.7606,-0.7606,-0.762,-0.7623,-0.7619,-0.7621,-0.7635,-0.7636,-0.7637,-0.7625,-0.7645,-0.7645,-0.7645,-0.7625,-0.7624,-0.7624,0,0,0,0,0,0,-0.7577,-0.7578,-0.7588,-0.7586,-0.7588,-0.7603,-0.7603,-0.7606,-0.7608,-0.7622,-0.7625,-0.7618,-0.7635,-0.7637,-0.7634,-0.7626,-0.7645,-0.7645,-0.7626,-0.7625,-0.7624,-0.76,0,0,0,0,0,0,-0.7577,-0.7578,-0.7573,-0.7586,-0.7588,-0.7584,-0.7603,-0.7606,-0.7608,-0.7611,-0.7622,-0.7625,-0.7636,-0.7633,-0.7634,-0.7626,-0.7645,-0.7626,-0.7625,-0.7624,-0.7602,-0.7599,-0.7596,0,0,0,0,0,-0.7576,-0.7565,-0.7572,-0.7573,-0.7582,-0.7584,-0.7585,-0.7598,-0.7608,-0.7603,-0.7613,-0.7624,-0.7627,-0.7633,-0.7633,-0.7626,-0.7627,-0.7626,-0.7624,-0.7603,-0.7599,-0.7596,0,0,0,0,0,0,-0.755,-0.7567,-0.7575,-0.7567,-0.7574,-0.7588,-0.7583,-0.7593,-0.7597,-0.7599,-0.7616,-0.7618,-0.7613,-0.7619,-0.7626,-0.7616,-0.7629,-0.7627,-0.7612,-0.7609,-0.7606,-0.7605,-0.7645,0,0,0,0,0,-0.7543,-0.7543,-0.7558,-0.755,-0.7553,-0.7567,-0.7568,-0.7578,-0.7586,-0.7588,-0.7598,-0.7604,-0.7607,-0.7608,-0.7611,-0.7603,-0.7607,-0.7598,-0.7595,-0.7593,-0.7592,-0.759,-0.7587,-0.7619,-0.7619,-0.7619,0,0,-0.7529,-0.7538,-0.7537,-0.7545,-0.7551,-0.7551,-0.7569,-0.7568,-0.7569,-0.7588,-0.7586,-0.7593,-0.7602,-0.7597,-0.7595,-0.7602,-0.7584,-0.7591,-0.7589,-0.7589,-0.7588,-0.7585,-0.7582,-0.7618,-0.7618,-0.7619,0,0,-0.7504,-0.751,-0.7505,-0.7512,-0.7521,-0.7532,-0.753,-0.7543,-0.7549,-0.7547,-0.7563,-0.7564,-0.7567,-0.7573,-0.7577,-0.7557,-0.7568,-0.7557,-0.7542,-0.754,-0.7538,-0.7536,-0.753,-0.7527,-0.7556,-0.7556,-0.7556,0,-0.7486,-0.7486,-0.7501,-0.75,-0.7504,-0.7522,-0.7518,-0.7523,-0.7533,-0.7535,-0.7543,-0.7549,-0.7556,-0.7554,-0.7549,-0.7551,-0.7551,-0.7556,-0.7537,-0.7535,-0.7533,-0.7528,-0.7526,-0.7555,-0.7555,-0.7555,-0.7555,0,-0.7464,-0.7464,-0.7459,-0.7469,-0.7472,-0.7469,-0.7485,-0.7486,-0.7496,-0.7505,-0.7505,-0.7514,-0.752,-0.752,-0.753,-0.752,-0.7524,-0.7534,-0.7547,-0.7529,-0.7524,-0.7522,-0.7553,-0.7553,-0.7554,-0.7554,0,0,-0.7422,-0.7442,-0.744,-0.7446,-0.7458,-0.7459,-0.7458,-0.7465,-0.7466,-0.7473,-0.7473,-0.7476,-0.7486,-0.7491,-0.7501,-0.7499,-0.7485,-0.751,-0.751,-0.7506,-0.7477,-0.747,-0.7467,-0.7492,-0.7492,-0.7492,-0.7476,0,-0.74,-0.7399,-0.7413,-0.7408,-0.741,-0.7429,-0.7428,-0.7436,-0.7445,-0.7449,-0.7459,-0.7462,-0.7474,-0.7477,-0.7476,-0.7487,-0.7479,-0.7488,-0.7494,-0.7494,-0.7492,-0.7464,-0.7457,-0.7441,-0.7474,-0.7474,-0.7474,0,-0.7374,-0.7381,-0.7376,-0.7392,-0.7393,-0.7392,-0.74,-0.7403,-0.7413,-0.742,-0.7426,-0.7438,-0.7439,-0.7451,-0.7454,-0.7459,-0.7462,-0.7468,-0.7468,-0.747,-0.7483,-0.7466,-0.7437,-0.7435,-0.7471,-0.7471,-0.7471,0,-0.7346,-0.7354,-0.7352,-0.7357,-0.7374,-0.7373,-0.738,-0.7391,-0.7395,-0.7402,-0.7405,-0.7412,-0.7416,-0.7422,-0.7437,-0.7444,-0.7438,-0.7451,-0.7445,-0.7444,-0.7442,-0.7443,-0.7414,-0.7443,-0.7443,-0.7443,-0.7443,0,-0.7321,-0.7318,-0.734,-0.734,-0.7337,-0.7354,-0.7352,-0.7361,-0.7371,-0.7373,-0.7389,-0.7391,-0.7409,-0.7414,-0.7425,-0.7426,-0.7427,-0.7434,-0.7437,-0.7433,-0.7432,-0.7436,-0.7437,-0.7443,-0.7443,-0.7443,-0.7443,0,-0.7289,-0.7303,-0.7304,-0.7321,-0.7325,-0.7323,-0.7337,-0.7338,-0.7349,-0.7352,-0.7353,-0.737,-0.7376,-0.7392,-0.7401,-0.7409,-0.7407,-0.7412,-0.7404,-0.7406,-0.7399,-0.74,-0.7373,-0.7371,-0.74,-0.74,-0.7399,0,-0.7272,-0.727,-0.7288,-0.729,-0.7297,-0.7301,-0.7306,-0.7323,-0.7327,-0.734,-0.7339,-0.7347,-0.7353,-0.7362,-0.7376,-0.7384,-0.739,-0.738,-0.7391,-0.7388,-0.7392,-0.7392,-0.7393,-0.7378,-0.7377,-0.7377,-0.7377,0,-0.7241,-0.7249,-0.7255,-0.7264,-0.7269,-0.7276,-0.7285,-0.7286,-0.7306,-0.731,-0.7316,-0.7322,-0.7333,-0.734,-0.7351,-0.7359,-0.7371,-0.7373,-0.7372,-0.7368,-0.7364,-0.7368,-0.7398,-0.7374,-0.7374,-0.7374,-0.7374,-0.7374,-0.7217,-0.7218,-0.723,-0.7237,-0.7245,-0.7253,-0.7255,-0.7267,-0.7273,-0.7283,-0.7293,-0.7299,-0.7312,-0.7327,-0.7335,-0.734,-0.7347,-0.7345,-0.7345,-0.7344,-0.7343,-0.7363,-0.7342,-0.7342,-0.7342,-0.7342,-0.7343,0,-0.7189,-0.7198,-0.7204,-0.7216,-0.7222,-0.7233,-0.7244,-0.7248,-0.7253,-0.7264,-0.7271,-0.7279,-0.7287,-0.7302,-0.7312,-0.7314,-0.732,-0.7316,-0.7316,-0.7318,-0.7336,-0.7337,-0.7311,-0.7311,-0.7311,-0.7311,-0.7311,-0.7311,-0.7175,-0.7176,-0.7186,-0.7192,-0.7202,-0.7208,-0.7214,-0.7222,-0.7231,-0.724,-0.7247,-0.7257,-0.7269,-0.728,-0.7289,-0.7293,-0.7296,-0.729,-0.7297,-0.7314,-0.7317,-0.7319,-0.732,-0.7291,-0.7291,-0.7278,-0.7278,-0.7278]}]]